Météo par heure à Kysla Dubyna

Ce jour, 24 Juillet, Samedi

Heure Température Précipitation Vent Pression Humidité
00:00 +17°C° 0 mm 2 m/s 743 mmHg 69%
01:00 +17°C° 0 mm 2 m/s 744 mmHg 71%
02:00 +17°C° 0 mm 2 m/s 744 mmHg 72%
03:00 +17°C° 0 mm 2 m/s 744 mmHg 72%
04:00 +17°C° 0 mm 2 m/s 744 mmHg 71%
05:00 +18°C° 0 mm 2 m/s 744 mmHg 70%
06:00 +19°C° 0 mm 2 m/s 744 mmHg 67%
07:00 +20°C° 0 mm 2 m/s 744 mmHg 65%
08:00 +22°C° 0 mm 3 m/s 744 mmHg 62%
09:00 +22°C° 0 mm 3 m/s 744 mmHg 61%
10:00 +24°C° 0 mm 3 m/s 745 mmHg 59%
11:00 +25°C° 0 mm 3 m/s 745 mmHg 57%
12:00 +25°C° 0.3 mm 3 m/s 745 mmHg 56%
13:00 +26°C° 0.3 mm 3 m/s 745 mmHg 55%
14:00 +26°C° 0.3 mm 3 m/s 745 mmHg 53%
15:00 +25°C° 0.1 mm 3 m/s 745 mmHg 57%
16:00 +25°C° 0.1 mm 2 m/s 745 mmHg 60%
17:00 +24°C° 0.1 mm 2 m/s 745 mmHg 64%
18:00 +23°C° 0.3 mm 2 m/s 745 mmHg 69%
19:00 +21°C° 0.3 mm 1 m/s 746 mmHg 74%
20:00 +20°C° 0.3 mm 1 m/s 746 mmHg 79%
21:00 +20°C° 0 mm 1 m/s 746 mmHg 80%
22:00 +18°C° 0 mm 2 m/s 747 mmHg 81%
23:00 +18°C° 0 mm 2 m/s 747 mmHg 81%

Demain, 25 Juillet, Dimanche

Heure Température Précipitation Vent Pression Humidité
00:00 +17°C° 0 mm 2 m/s 747 mmHg 81%
01:00 +17°C° 0 mm 2 m/s 747 mmHg 80%
02:00 +17°C° 0 mm 2 m/s 747 mmHg 79%
03:00 +16°C° 0 mm 2 m/s 748 mmHg 79%
04:00 +16°C° 0 mm 2 m/s 748 mmHg 79%
05:00 +16°C° 0 mm 2 m/s 748 mmHg 79%
06:00 +18°C° 0 mm 2 m/s 748 mmHg 73%
07:00 +20°C° 0 mm 3 m/s 749 mmHg 67%
08:00 +21°C° 0 mm 3 m/s 749 mmHg 60%
09:00 +24°C° 0 mm 3 m/s 749 mmHg 56%
10:00 +25°C° 0 mm 3 m/s 749 mmHg 51%
11:00 +27°C° 0 mm 3 m/s 749 mmHg 47%
12:00 +27°C° 0 mm 2 m/s 749 mmHg 44%
13:00 +28°C° 0 mm 2 m/s 749 mmHg 42%
14:00 +28°C° 0 mm 2 m/s 749 mmHg 40%
15:00 +27°C° 0 mm 2 m/s 749 mmHg 45%
16:00 +26°C° 0 mm 2 m/s 749 mmHg 50%
17:00 +25°C° 0 mm 3 m/s 749 mmHg 56%
18:00 +24°C° 0 mm 2 m/s 749 mmHg 58%
19:00 +23°C° 0 mm 2 m/s 750 mmHg 60%
20:00 +21°C° 0 mm 2 m/s 750 mmHg 62%
21:00 +21°C° 0 mm 2 m/s 750 mmHg 62%
22:00 +20°C° 0 mm 2 m/s 750 mmHg 62%
23:00 +20°C° 0 mm 2 m/s 750 mmHg 62%

Après-demain, 26 Juillet, Lundi

Heure Température Précipitation Vent Pression Humidité
00:00 +19°C° 0 mm 2 m/s 751 mmHg 61%
01:00 +19°C° 0 mm 2 m/s 751 mmHg 60%
02:00 +19°C° 0 mm 2 m/s 751 mmHg 59%
03:00 +18°C° 0 mm 2 m/s 751 mmHg 60%
04:00 +18°C° 0 mm 2 m/s 751 mmHg 62%
05:00 +18°C° 0 mm 2 m/s 751 mmHg 64%
06:00 +19°C° 0 mm 2 m/s 751 mmHg 62%
07:00 +20°C° 0 mm 2 m/s 751 mmHg 60%
08:00 +22°C° 0 mm 3 m/s 752 mmHg 58%
09:00 +24°C° 0 mm 3 m/s 752 mmHg 53%
10:00 +25°C° 0 mm 3 m/s 752 mmHg 48%
11:00 +27°C° 0 mm 3 m/s 752 mmHg 43%
12:00 +27°C° 0 mm 2 m/s 752 mmHg 41%
13:00 +28°C° 0 mm 2 m/s 751 mmHg 39%
14:00 +29°C° 0 mm 2 m/s 751 mmHg 37%
15:00 +29°C° 0 mm 2 m/s 751 mmHg 39%
16:00 +28°C° 0 mm 2 m/s 751 mmHg 41%
17:00 +28°C° 0 mm 2 m/s 751 mmHg 43%
18:00 +26°C° 0 mm 2 m/s 751 mmHg 49%
19:00 +24°C° 0 mm 3 m/s 751 mmHg 55%
20:00 +21°C° 0 mm 3 m/s 751 mmHg 61%
21:00 +20°C° 0 mm 3 m/s 751 mmHg 61%
22:00 +19°C° 0 mm 3 m/s 751 mmHg 61%
23:00 +19°C° 0 mm 3 m/s 751 mmHg 60%

27 Juillet, Mardi

Heure Température Précipitation Vent Pression Humidité
00:00 +18°C° 0 mm 3 m/s 751 mmHg 60%
01:00 +18°C° 0 mm 2 m/s 751 mmHg 59%
02:00 +17°C° 0 mm 2 m/s 751 mmHg 59%
03:00 +17°C° 0 mm 2 m/s 751 mmHg 60%
04:00 +17°C° 0 mm 2 m/s 751 mmHg 62%
05:00 +17°C° 0 mm 2 m/s 751 mmHg 63%
06:00 +19°C° 0 mm 2 m/s 751 mmHg 59%
07:00 +21°C° 0 mm 2 m/s 751 mmHg 54%
08:00 +24°C° 0 mm 2 m/s 751 mmHg 49%
09:00 +26°C° 0 mm 2 m/s 751 mmHg 45%
10:00 +27°C° 0 mm 2 m/s 751 mmHg 41%
11:00 +28°C° 0 mm 2 m/s 751 mmHg 37%
12:00 +29°C° 0 mm 2 m/s 751 mmHg 35%
13:00 +29°C° 0 mm 2 m/s 751 mmHg 34%
14:00 +30°C° 0 mm 2 m/s 750 mmHg 33%
15:00 +29°C° 0 mm 2 m/s 750 mmHg 35%
16:00 +29°C° 0 mm 2 m/s 750 mmHg 37%
17:00 +29°C° 0 mm 1 m/s 750 mmHg 38%
18:00 +27°C° 0 mm 2 m/s 750 mmHg 44%
19:00 +25°C° 0 mm 2 m/s 750 mmHg 49%
20:00 +21°C° 0 mm 2 m/s 749 mmHg 55%
21:00 +21°C° 0 mm 2 m/s 749 mmHg 56%
22:00 +20°C° 0 mm 2 m/s 749 mmHg 57%
23:00 +19°C° 0 mm 3 m/s 749 mmHg 59%

28 Juillet, Mercredi

Heure Température Précipitation Vent Pression Humidité
00:00 +19°C° 0 mm 3 m/s 749 mmHg 59%
01:00 +19°C° 0 mm 3 m/s 749 mmHg 59%
02:00 +18°C° 0 mm 3 m/s 749 mmHg 59%
03:00 +18°C° 0 mm 3 m/s 748 mmHg 62%
04:00 +18°C° 0 mm 3 m/s 748 mmHg 65%
05:00 +18°C° 0 mm 3 m/s 748 mmHg 67%
06:00 +20°C° 0 mm 3 m/s 748 mmHg 63%
07:00 +22°C° 0 mm 3 m/s 748 mmHg 58%
08:00 +26°C° 0 mm 4 m/s 748 mmHg 53%
09:00 +27°C° 0 mm 4 m/s 747 mmHg 48%
10:00 +29°C° 0 mm 4 m/s 747 mmHg 43%
11:00 +30°C° 0 mm 4 m/s 747 mmHg 39%
12:00 +32°C° 0 mm 4 m/s 747 mmHg 37%
13:00 +32°C° 0 mm 4 m/s 746 mmHg 35%
14:00 +33°C° 0 mm 4 m/s 746 mmHg 34%
15:00 +33°C° 0 mm 4 m/s 745 mmHg 37%
16:00 +32°C° 0 mm 4 m/s 745 mmHg 41%
17:00 +31°C° 0 mm 3 m/s 744 mmHg 45%
18:00 +29°C° 0 mm 3 m/s 744 mmHg 49%
19:00 +27°C° 0 mm 3 m/s 744 mmHg 53%
20:00 +26°C° 0 mm 3 m/s 743 mmHg 58%
21:00 +25°C° 0.1 mm 3 m/s 743 mmHg 62%
22:00 +22°C° 0.1 mm 4 m/s 743 mmHg 66%
23:00 +21°C° 0.1 mm 4 m/s 743 mmHg 70%

29 Juillet, Jeudi

Heure Température Précipitation Vent Pression Humidité
00:00 +21°C° 0.1 mm 3 m/s 742 mmHg 74%
01:00 +21°C° 0.1 mm 3 m/s 742 mmHg 78%
02:00 +20°C° 0.1 mm 3 m/s 742 mmHg 82%
03:00 +20°C° 0.1 mm 3 m/s 741 mmHg 84%
04:00 +20°C° 0.1 mm 3 m/s 741 mmHg 86%
05:00 +20°C° 0.1 mm 3 m/s 741 mmHg 88%
06:00 +21°C° 0.1 mm 3 m/s 741 mmHg 85%
07:00 +22°C° 0.1 mm 3 m/s 741 mmHg 81%
08:00 +25°C° 0.1 mm 3 m/s 742 mmHg 78%
09:00 +25°C° 0 mm 3 m/s 742 mmHg 75%
10:00 +26°C° 0 mm 4 m/s 742 mmHg 72%
11:00 +26°C° 0 mm 5 m/s 742 mmHg 69%
12:00 +25°C° 0.9 mm 4 m/s 742 mmHg 74%
13:00 +23°C° 0.9 mm 4 m/s 742 mmHg 79%
14:00 +22°C° 0.9 mm 4 m/s 742 mmHg 84%
15:00 +22°C° 0.5 mm 4 m/s 742 mmHg 84%
16:00 +23°C° 0.5 mm 4 m/s 742 mmHg 84%
17:00 +23°C° 0.5 mm 4 m/s 742 mmHg 83%
18:00 +22°C° 0.4 mm 3 m/s 742 mmHg 85%
19:00 +21°C° 0.4 mm 3 m/s 742 mmHg 87%
20:00 +20°C° 0.4 mm 3 m/s 743 mmHg 88%
21:00 +20°C° 0 mm 3 m/s 743 mmHg 89%
22:00 +20°C° 0 mm 3 m/s 743 mmHg 89%
23:00 +19°C° 0 mm 3 m/s 743 mmHg 89%
Voir plus

Nous avons besoin de votre consentement

Meteoprog et ses fournisseurs de services peuvent stocker et accéder à des données personnelles telles que des cookies, des identifiants d'appareils ou d'autres technologies similaires sur votre appareil et traiter ces données pour personnaliser le contenu et les publicités, ainsi que pour fournir des fonctionnalités de médias sociaux et analyser le trafic.

  • Stocker et/ou accéder à des informations sur votre appareil

    Des cookies, des identifiants d'appareils ou d'autres informations peuvent être stockés ou accessibles sur votre appareil aux fins indiquées ci-dessus.

  • Annonces et contenus personnalisés, mesure des annonces et des contenus, connaissance de l'audience et développement de produits

    Les annonces et le contenu peuvent être personnalisés en fonction d'un profil. D'autres données peuvent être ajoutées pour mieux personnaliser les annonces et le contenu. Les performances des publicités et du contenu peuvent être mesurées. Il est possible d'obtenir des informations sur le public qui a vu les publicités et le contenu. Ces données peuvent être utilisées pour développer ou améliorer l'expérience de l'utilisateur, les systèmes et les logiciels.

En cliquant sur "J'accepte", vous autorisez l'utilisation de cookies, des identifiants d'appareils, des balises web ou d'autres technologies similaires. Vos paramètres peuvent être modifiés dans le navigateur de votre appareil.

Dans certains cas, des intérêts légitimes peuvent être invoqués plutôt qu'un consentement. Vous pouvez en savoir plus à ce sujet dans notre Politique de confidentialité et de cookies.